Regional Weather Roundup
Issued by NWS

Home | Current Version | Previous Version | Graphics & Text | Print | Product List | Glossary On
Versions: 1 2 3 4 5 6 7 8 9 10 11 12 13 14 15 16 17 18 19 20 21 22 23 24 25 26 27 28 29 30 31 32 33 34 35 36 37 38 39 40 41 42 43 44 45 46 47 48 49 50
000
ASUS43 KOAX 050202
RWRNE

WEATHER ROUNDUP FOR NEBRASKA
NATIONAL WEATHER SERVICE OMAHA NE
900 PM CDT SAT JUL 04 2015

NOTES: SATELLITE DATA IS BEING USED TO AUGMENT CLOUD COVER ABOVE
       12000 FEET.
       "FAIR" INDICATES FEW OR NO CLOUDS BELOW 12,000 FEET WITH NO
       SIGNIFICANT WEATHER AND/OR OBSTRUCTIONS TO VISIBILITY.

  * THESE STATIONS DO NOT REPORT WEATHER SUCH AS RAIN...SNOW OR FOG.

NEZ001>004-019>022-054>056-050300-
NEBRASKA PANHANDLE

CITY           SKY/WX    TMP DP  RH WIND       PRES   REMARKS
SCOTTSBLUFF    PTCLDY    73  59  61 SE7       29.85R
ALLIANCE       CLEAR     76  63  64 S8        29.84R
CHADRON        CLEAR     84  65  52 W5        29.79R
KIMBALL          N/A    N/A N/A N/A MISG        N/A
SIDNEY         MOCLDY    82  58  43 SE10      29.88S
$$

NEZ057>060-069>072-079>082-050300-
SOUTHWEST NEBRASKA

CITY           SKY/WX    TMP DP  RH WIND       PRES   REMARKS
NORTH PLATTE   PTCLDY    82  64  54 SE12      29.84R
IMPERIAL       MOCLDY    87  59  38 SE17G23   29.84R
LEXINGTON      CLEAR     82  66  58 SE13      29.86S
MCCOOK         CLOUDY    86  62  44 SE18      29.84R
$$

NEZ005>010-023>029-035>040-094-050300-
NORTH CENTRAL NEBRASKA

CITY           SKY/WX    TMP DP  RH WIND       PRES   REMARKS
VALENTINE      CLOUDY    84  66  54 S28G35    29.74F
AINSWORTH      CLOUDY    81  67  61 S13       29.83S
BROKEN BOW     CLEAR     81  66  60 SE10      29.86F
ORD            PTCLDY    80  65  59 SE10      29.85S
$$

NEZ041-046>049-061>064-073>077-083>087-050300-
SOUTH CENTRAL NEBRASKA

CITY           SKY/WX    TMP DP  RH WIND       PRES   REMARKS
GRAND ISLAND   CLEAR     77  64  64 SE9       29.89S
AURORA         CLEAR     75  65  71 SE8       29.89S
HASTINGS       CLEAR     79  64  60 SE10      29.88F
KEARNEY *      CLEAR     79  64  61 SE13      29.87F
$$

NEZ011>018-030>034-042>045-050300-
NORTHEAST NEBRASKA

CITY           SKY/WX    TMP DP  RH WIND       PRES   REMARKS
NORFOLK        CLEAR     74  66  76 SE8       29.88S
ALBION         CLEAR     74  65  71 SE7       29.88S
BLAIR          PTCLDY    74  62  66 SE7       29.91S
COLUMBUS *     CLEAR     75  63  64 SE6       29.88F
FREMONT        CLEAR     77  63  61 SE7       29.90S
TEKAMAH        PTCLDY    75  63  66 SE8       29.89S
$$

NEZ050>053-065>068-078-088>093-050300-
SOUTHEAST NEBRASKA

CITY           SKY/WX    TMP DP  RH WIND       PRES   REMARKS
LINCOLN        CLEAR     78  64  61 SE9       29.90S
OMAHA EPPLEY   PTCLDY    76  63  64 SE12      29.90S
BEATRICE       CLEAR     77  64  62 SE7       29.91S HAZE
FALLS CITY     CLEAR     73  65  75 SE6       29.92S
NEBRASKA CITY  CLEAR     74  59  59 SE8       29.92F
PLATTSMOUTH    CLEAR     73  61  65 SE5       29.91F
$$

NEZ044-045-051>053-067-050300-
OMAHA AREA

CITY           SKY/WX    TMP DP  RH WIND       PRES   REMARKS
OMAHA EPPLEY   PTCLDY    76  63  64 SE12      29.90S
BLAIR          PTCLDY    74  62  66 SE7       29.91S
FREMONT        CLEAR     77  63  61 SE7       29.90S
MILLARD        PTCLDY    75  65  70 SE6       29.90S
OFFUTT AFB     PTCLDY    73  65  75 E6        29.90S
PLATTSMOUTH    CLEAR     73  61  65 SE5       29.91F
WAHOO          FAIR      74  66  77 SE6       29.90S
$$



USA.gov is the U.S. government's official web portal to all federal, state and local government web resources and services.